Weather History for KPIR - January, 2012

Change the Weather History Date:

Wednesday, January 25, 2012

  Actual Average Record
Temperature  
Mean Temperature 27 °F 20 °F  
Max Temperature 42 °F 31 °F 58 °F (2002)
Min Temperature 12 °F 10 °F -22 °F (1950)
Degree Days  
Heating Degree Days 38 45  
Month to date heating degree days 1020 1130  
Since 1 July heating degree days 3617 4092  
Cooling Degree Days 0 0  
Month to date cooling degree days 0 0  
Year to date cooling degree days 0 0  
Moisture  
Dew Point 20 °F    
Average Humidity 82    
Maximum Humidity 100    
Minimum Humidity 64    
Precipitation  
Precipitation 0.00 in 0.01 in 0.20 in (1925)
Month to date precipitation 0.59 0.34  
Year to date precipitation 0.59 0.34  
Snow  
Snow 0.00 in 0.10 in 1.60 in (1978)
Month to date snowfall 4.7 3.8  
Since 1 July snowfall 15.0 15.0  
Snow Depth 2.00 in    
Sea Level Pressure  
Sea Level Pressure 29.98 in    
Wind  
Wind Speed 8 mph (SSE)    
Max Wind Speed 21 mph    
Max Gust Speed 25 mph    
Visibility 6 miles    
Events Fog    
T = Trace of Precipitation, MM = Missing Value Source: NWS Daily Summary

Daily Weather History Graph

Daily Weather History Graph

Search for Another Location

Airport or City:

Trip Planner

Search our weather history database for the weather conditions in past years. The results will help you decide how hot, cold, wet, or windy it might be!

Date:

Astronomy

Jan. 25, 2012 Rise Set
Actual Time 8:06 AM CST 5:40 PM CST
Civil Twilight 7:35 AM CST 6:11 PM CST
Nautical Twilight 7:00 AM CST 6:47 PM CST
Astronomical Twilight 6:25 AM CST 7:21 PM CST
Moon 8:59 AM CST (1/25) 8:44 PM CST (1/25)
Length of Visible Light 10h 36m
Length of Day
9h 33m
Waxing Crescent, 7% of the Moon is Illuminated
Jan 25
Waxing Crescent
Jan 30
First Quarter
Feb 7
Full
Feb 14
Last Quarter
Feb 21
New

Hourly Weather History & Observations

Time (CST) Temp. Windchill Dew Point Humidity Pressure Visibility Wind Dir Wind Speed Gust Speed Precip Events Conditions
12:53 AM 25.0 °F 20.7 °F 25.0 °F 100% 30.19 in 0.2 mi SSW 3.5 mph - N/A Fog Light Freezing Fog
1:53 AM 25.0 °F 18.1 °F 24.1 °F 96% 30.18 in 0.2 mi SSW 5.8 mph - N/A Fog Light Freezing Fog
2:53 AM 21.9 °F 17.2 °F 21.0 °F 96% 30.18 in 0.2 mi SSE 3.5 mph - N/A Fog Light Freezing Fog
3:53 AM 19.9 °F 14.9 °F 17.1 °F 89% 30.16 in 0.2 mi East 3.5 mph - N/A Fog Light Freezing Fog
4:22 AM 17.6 °F - 14.0 °F 86% 30.10 in 0.5 mi Calm Calm - N/A Fog Light Freezing Fog
4:33 AM 15.8 °F 8.6 °F 12.2 °F 86% 30.09 in 1.2 mi East 4.6 mph - N/A   Scattered Clouds
4:39 AM 15.8 °F 7.2 °F 12.2 °F 86% 30.08 in 3.0 mi East 5.8 mph - N/A   Partly Cloudy
4:53 AM 15.1 °F 9.4 °F 10.9 °F 84% 30.14 in 10.0 mi East 3.5 mph - N/A   Clear
5:11 AM 15.8 °F 10.2 °F 12.2 °F 86% 30.05 in 2.5 mi SSE 3.5 mph - N/A   Partly Cloudy
5:27 AM 15.8 °F 10.2 °F 12.2 °F 86% 30.04 in 4.0 mi East 3.5 mph - N/A   Partly Cloudy
5:29 AM 14.0 °F 8.2 °F 12.2 °F 93% 30.04 in 1.8 mi ESE 3.5 mph - N/A   Scattered Clouds
5:32 AM 14.0 °F 8.2 °F 10.4 °F 86% 30.03 in 0.8 mi ESE 3.5 mph - N/A   Mist
5:43 AM 14.0 °F 6.5 °F 10.4 °F 86% 30.04 in 0.2 mi East 4.6 mph - N/A Fog Light Freezing Fog
5:53 AM 15.1 °F 9.4 °F 12.9 °F 91% 30.11 in 0.2 mi ESE 3.5 mph - N/A Fog Light Freezing Fog
6:23 AM 15.8 °F 7.2 °F 14.0 °F 93% 30.02 in 0.8 mi SE 5.8 mph - N/A   Mist
6:25 AM 17.6 °F 8.2 °F 14.0 °F 86% 30.02 in 1.2 mi SE 6.9 mph - N/A   Scattered Clouds
6:28 AM 15.8 °F 5.1 °F 12.2 °F 86% 30.02 in 4.0 mi SE 8.1 mph - N/A   Scattered Clouds
6:53 AM 16.0 °F 6.3 °F 12.0 °F 84% 30.08 in 10.0 mi SE 6.9 mph - N/A   Clear
7:53 AM 12.9 °F 3.8 °F 9.0 °F 84% 30.05 in 10.0 mi SE 5.8 mph - N/A   Clear
8:53 AM 19.0 °F 8.2 °F 14.0 °F 81% 29.99 in 10.0 mi SSE 9.2 mph - N/A   Clear
9:53 AM 21.9 °F 13.4 °F 18.0 °F 85% 29.97 in 10.0 mi ESE 6.9 mph - N/A   Clear
10:53 AM 25.0 °F 17.1 °F 21.0 °F 85% 29.96 in 10.0 mi SSE 6.9 mph - N/A   Mostly Cloudy
11:53 AM 28.0 °F 19.3 °F 24.1 °F 85% 29.92 in 10.0 mi SSE 9.2 mph - N/A   Scattered Clouds
12:53 PM 30.2 °F 22.6 °F 26.6 °F 86% 29.79 in 10.0 mi South 8.1 mph - N/A   Clear
1:53 PM 35.1 °F 30.1 °F 28.0 °F 76% 29.83 in 10.0 mi South 5.8 mph - N/A   Clear
2:53 PM 36.0 °F 29.6 °F 30.0 °F 79% 29.81 in 10.0 mi SSE 8.1 mph - N/A   Clear
3:53 PM 37.0 °F 31.6 °F 30.9 °F 79% 29.80 in 10.0 mi SSE 6.9 mph - N/A   Clear
4:53 PM 39.0 °F 35.7 °F 30.9 °F 73% 29.81 in 10.0 mi South 4.6 mph - N/A   Clear
5:53 PM 36.0 °F 33.3 °F 30.0 °F 79% 29.83 in 10.0 mi WSW 3.5 mph - N/A   Mostly Cloudy
6:53 PM 35.1 °F 28.6 °F 28.0 °F 76% 29.84 in 10.0 mi SSW 8.1 mph - N/A   Partly Cloudy
7:53 PM 39.9 °F 33.9 °F 28.9 °F 65% 29.86 in 10.0 mi WSW 9.2 mph - N/A   Mostly Cloudy
8:53 PM 39.2 °F 32.0 °F 28.4 °F 65% 29.79 in 10.0 mi West 11.5 mph - N/A   Scattered Clouds
9:53 PM 39.2 °F 30.5 °F 30.2 °F 70% 29.80 in 10.0 mi West 16.1 mph - N/A   Clear
10:53 PM 39.9 °F 32.1 °F 28.0 °F 63% 29.88 in 10.0 mi West 13.8 mph - N/A   Clear
11:53 PM 39.9 °F 31.1 °F 26.1 °F 58% 29.89 in 10.0 mi West 17.3 mph - N/A   Clear